CT1ETE-13 Weather Reports


Display with metric or nautical units.
time (UTC)temp
F
wind
direction
speed
MPH
gust
MPH
rain 1hr
in
rain 24hr
in
rain mn
in
humidity
%
barometer
mb
20260509052625 55 118 8.0 11.0 0.00 0.06 0.03 75 1004.1
20260509041125 55 112 3.0 6.0 0.00 0.07 0.03 79 1004.4
20260509031120 55 150 4.0 8.0 0.00 0.07 0.03 79 1004.6
20260509013216 54 109 4.0 9.0 0.03 0.07 0.03 84 1004.8
20260509004727 56 156 3.0 10.0 0.01 0.05 0.01 78 1005.9
20260509001117 58 162 8.0 16.0 0.00 0.04 0.00 68 1005.9
20260508220215 58 60 13.0 21.0 0.00 0.04 0.04 69 1005.9
20260508214659 57 89 14.0 20.0 0.00 0.04 0.04 70 1006.3
20260508211112 57 82 13.0 19.0 0.00 0.04 0.04 69 1006.5
20260508201105 58 68 11.0 16.0 0.00 0.04 0.04 71 1006.8
20260508195605 58 108 6.0 15.0 0.00 0.04 0.04 71 1006.7
20260508194710 58 88 8.0 14.0 0.00 0.04 0.04 71 1006.8
20260508182559 62 65 2.0 4.0 0.00 0.04 0.04 62 1007.2
20260508181058 62 65 2.0 3.0 0.00 0.04 0.04 60 1007.3
20260508161043 64 244 3.0 6.0 0.00 0.04 0.04 58 1007.8
20260508144638 57 213 6.0 12.0 0.00 0.04 0.04 74 1008.8
20260508143838 58 188 8.0 17.0 0.00 0.04 0.04 73 1009.0
20260508132540 62 240 8.0 16.0 0.00 0.04 0.04 61 1008.9
20260508130132 61 248 7.0 13.0 0.00 0.04 0.04 70 1009.4
20260508094038 60 198 5.0 13.0 0.00 0.02 0.02 70 1009.3
20260508092537 59 100 3.0 9.0 0.00 0.02 0.02 79 1009.3
20260508082531 54 162 3.0 9.0 0.00 0.02 0.02 86 1009.0
20260508081030 53 153 5.0 9.0 0.00 0.02 0.02 86 1008.9
20260508071029 52 194 1.0 4.0 0.00 0.02 0.02 80 1008.5